TimeEST,TemperatureF,Dew PointF,Humidity,Sea Level PressureIn,VisibilityMPH,Wind Direction,Wind SpeedMPH,Gust SpeedMPH,PrecipitationIn,Events,Conditions,WindDirDegrees,DateUTC
12:53 AM,42.1,33.1,70,30.03,10.0,NW,8.1,-,N/A,,Overcast,320,2013-02-14 05:53:00
1:53 AM,41.0,33.1,73,30.04,10.0,NW,8.1,-,N/A,,Overcast,320,2013-02-14 06:53:00
2:53 AM,41.0,33.1,73,30.04,10.0,NW,5.8,-,N/A,,Overcast,310,2013-02-14 07:53:00
3:53 AM,41.0,30.9,67,30.03,10.0,NW,9.2,-,N/A,,Overcast,310,2013-02-14 08:53:00
4:53 AM,41.0,30.2,65,30.03,10.0,NW,5.8,-,N/A,,Overcast,320,2013-02-14 09:53:00
5:06 AM,39.2,30.2,70,30.03,10.0,NW,4.6,-,N/A,,Overcast,320,2013-02-14 10:06:00
5:53 AM,39.0,30.9,73,30.04,10.0,NNW,5.8,-,N/A,,Mostly Cloudy,330,2013-02-14 10:53:00
6:53 AM,37.4,30.2,75,30.05,10.0,Calm,Calm,-,N/A,,Scattered Clouds,0,2013-02-14 11:53:00
7:53 AM,34.0,30.9,89,30.09,10.0,Calm,Calm,-,N/A,,Scattered Clouds,0,2013-02-14 12:53:00
8:53 AM,39.9,33.1,77,30.10,10.0,Calm,Calm,-,N/A,,Scattered Clouds,0,2013-02-14 13:53:00
9:53 AM,44.1,30.9,60,30.10,10.0,Calm,Calm,-,N/A,,Scattered Clouds,0,2013-02-14 14:53:00
10:53 AM,45.0,33.1,63,30.08,10.0,Calm,Calm,-,N/A,,Scattered Clouds,0,2013-02-14 15:53:00
11:53 AM,48.0,34.0,58,30.09,10.0,Variable,3.5,-,N/A,,Scattered Clouds,0,2013-02-14 16:53:00
12:53 PM,52.0,35.1,53,30.07,10.0,Variable,6.9,-,N/A,,Scattered Clouds,0,2013-02-14 17:53:00
1:53 PM,53.1,33.1,47,30.04,10.0,SW,6.9,-,N/A,,Scattered Clouds,220,2013-02-14 18:53:00
2:53 PM,55.9,34.0,44,30.03,10.0,Variable,3.5,-,N/A,,Scattered Clouds,0,2013-02-14 19:53:00
3:53 PM,57.0,32.0,39,30.02,10.0,SSW,8.1,-,N/A,,Partly Cloudy,210,2013-02-14 20:53:00
4:53 PM,57.9,32.0,37,30.02,10.0,West,6.9,-,N/A,,Partly Cloudy,260,2013-02-14 21:53:00
5:53 PM,55.9,32.0,40,30.02,10.0,SW,9.2,-,N/A,,Partly Cloudy,220,2013-02-14 22:53:00
6:53 PM,53.1,34.0,48,30.03,10.0,SW,4.6,-,N/A,,Clear,220,2013-02-14 23:53:00
7:53 PM,51.1,34.0,52,30.04,10.0,SW,4.6,-,N/A,,Clear,230,2013-02-15 00:53:00
8:53 PM,46.9,36.0,66,30.05,10.0,Calm,Calm,-,N/A,,Clear,0,2013-02-15 01:53:00
9:53 PM,43.0,36.0,76,30.06,10.0,Calm,Calm,-,N/A,,Clear,0,2013-02-15 02:53:00
10:53 PM,39.9,36.0,86,30.06,10.0,Calm,Calm,-,N/A,,Clear,0,2013-02-15 03:53:00
11:53 PM,39.0,36.0,89,30.07,10.0,Calm,Calm,-,N/A,,Clear,0,2013-02-15 04:53:00